TGL30C LFBZ-LICC

Flight info

Callsign TGL30C
Flight time 2h 26m
Altitude 36000
Route SOVOS G17 ORTEZ DCT TBO DCT PERDU N862 POSSY M601 BCN N725 ORKUM M603 ELSAG DCT ALG/N0437F370 DCT QUENN DCT RONAB DCT BEKIV/N0348F190 M871 LIBRO
Aircraft A320/M-SDE3FGHIRWY/LB1

Departure

Time 2026-04-28 23:16
Airport Biarritz Pays Basque airport (LFBZ)

Arrival

Time 2026-04-29 01:42
Airport Catania-Fontanarossa Airport (LICC)
Time Latitude Longitude Altitude Speed Heading
2026-04-28 22:47 43.47116 -1.53119 256 ft 0 kts 14°
2026-04-28 23:01 43.47107 -1.53122 256 ft 3 kts 22°
2026-04-28 23:01 43.47088 -1.53131 257 ft 3 kts 19°
2026-04-28 23:01 43.47069 -1.53141 257 ft 3 kts 25°
2026-04-28 23:02 43.47052 -1.53154 257 ft 3 kts 43°
2026-04-28 23:02 43.47041 -1.53172 257 ft 1 kts 70°
2026-04-28 23:02 43.47039 -1.53180 257 ft 0 kts 70°
2026-04-28 23:06 43.47040 -1.53177 257 ft 1 kts 70°
2026-04-28 23:07 43.47044 -1.53163 257 ft 3 kts 70°
2026-04-28 23:07 43.47051 -1.53128 257 ft 4 kts 78°
2026-04-28 23:07 43.47054 -1.53083 256 ft 6 kts 88°
2026-04-28 23:07 43.47055 -1.53021 256 ft 4 kts 89°
2026-04-28 23:08 43.47055 -1.52967 255 ft 7 kts 89°
2026-04-28 23:08 43.47041 -1.52902 255 ft 7 kts 135°
2026-04-28 23:08 43.47002 -1.52849 255 ft 9 kts 120°
2026-04-28 23:08 43.46994 -1.52753 254 ft 11 kts 88°
2026-04-28 23:09 43.46996 -1.52632 253 ft 14 kts 89°
2026-04-28 23:09 43.46998 -1.52503 252 ft 11 kts 89°
2026-04-28 23:09 43.46999 -1.52394 251 ft 13 kts 89°
2026-04-28 23:09 43.47000 -1.52283 250 ft 11 kts 89°
2026-04-28 23:10 43.46988 -1.52204 250 ft 9 kts 122°
2026-04-28 23:10 43.46933 -1.52174 250 ft 9 kts 178°
2026-04-28 23:10 43.46864 -1.52153 249 ft 11 kts 142°
2026-04-28 23:10 43.46845 -1.52047 249 ft 12 kts 87°
2026-04-28 23:11 43.46849 -1.51923 248 ft 14 kts 88°
2026-04-28 23:11 43.46849 -1.51780 246 ft 16 kts 90°
2026-04-28 23:11 43.46850 -1.51615 245 ft 18 kts 89°
2026-04-28 23:11 43.46852 -1.51453 245 ft 15 kts 89°
2026-04-28 23:12 43.46854 -1.51293 243 ft 18 kts 89°
2026-04-28 23:12 43.46854 -1.51127 242 ft 15 kts 90°
2026-04-28 23:12 43.46872 -1.51023 242 ft 7 kts 60°
2026-04-28 23:12 43.46887 -1.50981 242 ft 3 kts 77°
2026-04-28 23:13 43.46875 -1.50958 242 ft 3 kts 144°
2026-04-28 23:13 43.46853 -1.50971 241 ft 4 kts 238°
2026-04-28 23:13 43.46853 -1.51013 242 ft 5 kts 269°
2026-04-28 23:13 43.46853 -1.51015 242 ft 0 kts 269°
2026-04-28 23:15 43.46853 -1.51016 242 ft 0 kts 269°
2026-04-28 23:15 43.46851 -1.51133 242 ft 43 kts 269°
2026-04-28 23:15 43.46841 -1.51875 248 ft 108 kts 269°
2026-04-28 23:16 43.46826 -1.53127 272 ft 151 kts 270°
2026-04-28 23:16 43.46829 -1.54593 754 ft 153 kts 270°
2026-04-28 23:16 43.46812 -1.56059 1279 ft 153 kts 268°
2026-04-28 23:16 43.46791 -1.57526 1797 ft 154 kts 268°
2026-04-28 23:17 43.46769 -1.59049 2121 ft 168 kts 268°
2026-04-28 23:17 43.46574 -1.60712 2283 ft 187 kts 238°
2026-04-28 23:17 43.45544 -1.61856 2454 ft 203 kts 193°
2026-04-28 23:17 43.44114 -1.61720 2712 ft 218 kts 152°
2026-04-28 23:18 43.43079 -1.60198 3277 ft 225 kts 114°
2026-04-28 23:18 43.42530 -1.58173 4078 ft 228 kts 110°
2026-04-28 23:18 43.42062 -1.56079 4874 ft 231 kts 109°
2026-04-28 23:18 43.41607 -1.53946 5649 ft 234 kts 111°
2026-04-28 23:19 43.41143 -1.51793 6430 ft 236 kts 112°
2026-04-28 23:19 43.40665 -1.49617 7146 ft 240 kts 112°
2026-04-28 23:19 43.40173 -1.47403 7876 ft 244 kts 111°
2026-04-28 23:19 43.39667 -1.45153 8602 ft 249 kts 111°
2026-04-28 23:20 43.39369 -1.42762 9224 ft 264 kts 95°
2026-04-28 23:20 43.39329 -1.40127 9524 ft 287 kts 94°
2026-04-28 23:20 43.39303 -1.37334 10093 ft 296 kts 93°
2026-04-28 23:20 43.39280 -1.34412 10388 ft 317 kts 93°
2026-04-28 23:21 43.39251 -1.31276 10595 ft 338 kts 93°
2026-04-28 23:21 43.39219 -1.28005 11131 ft 346 kts 93°
2026-04-28 23:21 43.39184 -1.24680 11769 ft 350 kts 93°
2026-04-28 23:21 43.39148 -1.21312 12417 ft 354 kts 92°
2026-04-28 23:22 43.39109 -1.17906 13057 ft 358 kts 92°
2026-04-28 23:22 43.39064 -1.14465 13693 ft 362 kts 92°
2026-04-28 23:22 43.39015 -1.10989 14274 ft 365 kts 93°
2026-04-28 23:22 43.38963 -1.07480 14828 ft 368 kts 93°
2026-04-28 23:23 43.38908 -1.03945 15377 ft 372 kts 93°
2026-04-28 23:23 43.38853 -1.00373 15927 ft 375 kts 93°
2026-04-28 23:23 43.38797 -0.96773 16480 ft 379 kts 93°
2026-04-28 23:23 43.38739 -0.93135 17031 ft 382 kts 93°
2026-04-28 23:24 43.38620 -0.89471 17569 ft 385 kts 99°
2026-04-28 23:24 43.38214 -0.85824 18112 ft 388 kts 101°
2026-04-28 23:24 43.37783 -0.82148 18604 ft 391 kts 101°
2026-04-28 23:24 43.37346 -0.78439 19089 ft 395 kts 101°
2026-04-28 23:25 43.36906 -0.74700 19570 ft 398 kts 101°
2026-04-28 23:25 43.36524 -0.70910 20050 ft 403 kts 96°
2026-04-28 23:25 43.36380 -0.67045 20513 ft 407 kts 95°
2026-04-28 23:25 43.36244 -0.63148 20964 ft 410 kts 95°
2026-04-28 23:26 43.36106 -0.59218 21405 ft 413 kts 95°
2026-04-28 23:26 43.35968 -0.55257 21844 ft 416 kts 95°
2026-04-28 23:26 43.35828 -0.51270 22282 ft 420 kts 95°
2026-04-28 23:26 43.35686 -0.47252 22720 ft 423 kts 95°
2026-04-28 23:27 43.35540 -0.43203 23152 ft 426 kts 95°
2026-04-28 23:27 43.35390 -0.39123 23559 ft 429 kts 95°
2026-04-28 23:27 43.35234 -0.35012 23923 ft 432 kts 95°
2026-04-28 23:27 43.35072 -0.30882 24293 ft 434 kts 95°
2026-04-28 23:28 43.34906 -0.26727 24665 ft 437 kts 95°
2026-04-28 23:28 43.34739 -0.22551 25030 ft 439 kts 95°
2026-04-28 23:28 43.34572 -0.18350 25392 ft 441 kts 95°
2026-04-28 23:28 43.34403 -0.14130 25773 ft 444 kts 95°
2026-04-28 23:29 43.34233 -0.09889 26139 ft 446 kts 95°
2026-04-28 23:29 43.34059 -0.05620 26487 ft 448 kts 95°
2026-04-28 23:29 43.33881 -0.01334 26833 ft 451 kts 95°
2026-04-28 23:29 43.33460 0.02920 27138 ft 449 kts 108°
2026-04-28 23:30 43.32276 0.06849 27456 ft 445 kts 124°
2026-04-28 23:30 43.30393 0.10169 27778 ft 439 kts 140°
2026-04-28 23:30 43.27942 0.12691 28106 ft 433 kts 156°
2026-04-28 23:30 43.25172 0.14208 28447 ft 427 kts 171°
2026-04-28 23:31 43.22248 0.14692 28771 ft 422 kts 183°
2026-04-28 23:31 43.19303 0.14702 29104 ft 424 kts 184°
2026-04-28 23:31 43.16345 0.14717 29454 ft 427 kts 183°
2026-04-28 23:31 43.13368 0.14738 29792 ft 429 kts 183°
2026-04-28 23:32 43.10417 0.14765 30129 ft 430 kts 183°
2026-04-28 23:32 43.07389 0.14795 30549 ft 429 kts 184°
2026-04-28 23:32 43.04407 0.14824 30949 ft 428 kts 184°
2026-04-28 23:32 43.01432 0.14853 31332 ft 427 kts 184°
2026-04-28 23:33 42.98461 0.14884 31755 ft 426 kts 184°
2026-04-28 23:33 42.95498 0.14916 32162 ft 426 kts 184°
2026-04-28 23:33 42.92536 0.14946 32582 ft 424 kts 184°
2026-04-28 23:33 42.89587 0.14975 32984 ft 424 kts 184°
2026-04-28 23:34 42.86639 0.15001 33385 ft 423 kts 185°
2026-04-28 23:34 42.83697 0.15024 33810 ft 423 kts 185°
2026-04-28 23:34 42.80758 0.15045 34162 ft 422 kts 185°
2026-04-28 23:34 42.77822 0.15068 34498 ft 422 kts 185°
2026-04-28 23:35 42.74888 0.15093 34768 ft 422 kts 185°
2026-04-28 23:35 42.71951 0.15119 35062 ft 422 kts 184°
2026-04-28 23:35 42.69016 0.15148 35377 ft 422 kts 184°
2026-04-28 23:35 42.66079 0.15176 35661 ft 422 kts 184°
2026-04-28 23:36 42.63145 0.15204 35902 ft 422 kts 184°
2026-04-28 23:36 42.60195 0.15231 35970 ft 425 kts 184°
2026-04-28 23:36 42.54254 0.15281 35986 ft 428 kts 184°
2026-04-28 23:37 42.48292 0.15333 35991 ft 428 kts 184°
2026-04-28 23:37 42.42334 0.15390 35985 ft 428 kts 184°
2026-04-28 23:38 42.36376 0.15452 35981 ft 428 kts 184°
2026-04-28 23:38 42.30416 0.15509 35984 ft 428 kts 184°
2026-04-28 23:39 42.24453 0.15562 35979 ft 428 kts 184°
2026-04-28 23:39 42.18493 0.15603 35962 ft 429 kts 184°
2026-04-28 23:40 42.12529 0.15864 35967 ft 433 kts 174°
2026-04-28 23:40 42.09606 0.16928 35963 ft 439 kts 161°
2026-04-28 23:40 42.06893 0.18860 35961 ft 446 kts 148°
2026-04-28 23:41 42.04531 0.21598 35960 ft 452 kts 135°
2026-04-28 23:41 42.02665 0.25018 35952 ft 458 kts 122°
2026-04-28 23:41 41.99786 0.32624 35956 ft 460 kts 120°
2026-04-28 23:42 41.96902 0.40306 35949 ft 461 kts 119°
2026-04-28 23:42 41.94008 0.47984 35980 ft 461 kts 119°
2026-04-28 23:43 41.91104 0.55644 35984 ft 460 kts 119°
2026-04-28 23:43 41.88202 0.63309 35988 ft 460 kts 119°
2026-04-28 23:44 41.85294 0.70956 35987 ft 460 kts 120°
2026-04-28 23:44 41.82375 0.78590 35984 ft 460 kts 119°
2026-04-28 23:45 41.79455 0.86220 35986 ft 460 kts 119°
2026-04-28 23:45 41.76536 0.93848 35970 ft 460 kts 119°
2026-04-28 23:46 41.74088 1.00224 35982 ft 459 kts 119°
2026-04-28 23:46 41.71154 1.07816 35990 ft 459 kts 119°
2026-04-28 23:47 41.68221 1.15396 35979 ft 458 kts 119°
2026-04-28 23:47 41.65293 1.22965 36000 ft 458 kts 119°
2026-04-28 23:48 41.62366 1.30517 36011 ft 457 kts 119°
2026-04-28 23:48 41.59429 1.38053 36013 ft 457 kts 119°
2026-04-28 23:49 41.56487 1.45574 36010 ft 457 kts 120°
2026-04-28 23:49 41.53543 1.53092 36008 ft 457 kts 120°
2026-04-28 23:50 41.50616 1.60542 36015 ft 456 kts 120°
2026-04-28 23:50 41.47673 1.68019 36014 ft 455 kts 120°
2026-04-28 23:51 41.44740 1.75480 36012 ft 454 kts 120°
2026-04-28 23:51 41.41801 1.82921 36009 ft 454 kts 120°
2026-04-28 23:52 41.38849 1.90355 36011 ft 453 kts 120°
2026-04-28 23:52 41.35906 1.97774 36014 ft 453 kts 120°
2026-04-28 23:53 41.32951 2.05179 36015 ft 453 kts 120°
2026-04-28 23:53 41.30412 2.12830 36017 ft 454 kts 106°
2026-04-28 23:54 41.29038 2.21027 36018 ft 454 kts 103°
2026-04-28 23:54 41.27688 2.29224 36016 ft 454 kts 103°
2026-04-28 23:55 41.26332 2.37411 36016 ft 453 kts 104°
2026-04-28 23:55 41.24963 2.45588 36009 ft 453 kts 104°
2026-04-28 23:56 41.23588 2.53763 36002 ft 453 kts 104°
2026-04-28 23:56 41.22215 2.61935 36009 ft 453 kts 104°
2026-04-28 23:57 41.20838 2.70102 35993 ft 453 kts 104°
2026-04-28 23:57 41.19452 2.78267 36005 ft 453 kts 104°
2026-04-28 23:58 41.18063 2.86412 36007 ft 452 kts 104°
2026-04-28 23:58 41.16667 2.94558 36013 ft 452 kts 104°
2026-04-28 23:59 41.15272 3.02688 36015 ft 452 kts 104°
2026-04-28 23:59 41.13873 3.10816 36013 ft 451 kts 104°
2026-04-29 00:00 41.12463 3.18926 36003 ft 451 kts 104°
2026-04-29 00:00 41.11051 3.27032 36010 ft 451 kts 104°
2026-04-29 00:01 41.09629 3.35136 36011 ft 451 kts 104°
2026-04-29 00:01 41.08202 3.43237 36011 ft 451 kts 104°
2026-04-29 00:02 41.06773 3.51329 36016 ft 451 kts 104°
2026-04-29 00:02 41.05340 3.59413 36013 ft 450 kts 104°
2026-04-29 00:03 41.03901 3.67482 36011 ft 450 kts 104°
2026-04-29 00:03 41.02457 3.75541 36016 ft 450 kts 104°
2026-04-29 00:04 41.01006 3.83590 36011 ft 449 kts 104°
2026-04-29 00:04 40.99552 3.91632 36010 ft 449 kts 104°
2026-04-29 00:05 40.98094 3.99671 36013 ft 449 kts 104°
2026-04-29 00:05 40.96630 4.07706 36013 ft 449 kts 104°
2026-04-29 00:06 40.95165 4.15731 36012 ft 449 kts 104°
2026-04-29 00:06 40.93694 4.23761 36008 ft 449 kts 105°
2026-04-29 00:07 40.92210 4.31783 36013 ft 449 kts 105°
2026-04-29 00:07 40.90723 4.39752 36012 ft 449 kts 105°
2026-04-29 00:08 40.89227 4.47770 36013 ft 449 kts 105°
2026-04-29 00:08 40.87730 4.55787 36014 ft 449 kts 105°
2026-04-29 00:09 40.86212 4.63854 36008 ft 450 kts 105°
2026-04-29 00:09 40.85214 4.71953 36010 ft 451 kts 97°
2026-04-29 00:10 40.84469 4.80177 36012 ft 451 kts 98°
2026-04-29 00:10 40.83698 4.88396 36013 ft 451 kts 98°
2026-04-29 00:11 40.82919 4.96612 36012 ft 451 kts 98°
2026-04-29 00:12 40.81745 5.08949 36012 ft 452 kts 98°
2026-04-29 00:12 40.80964 5.17178 36014 ft 452 kts 98°
2026-04-29 00:13 40.80179 5.25405 36010 ft 452 kts 98°
2026-04-29 00:13 40.79383 5.33631 36009 ft 452 kts 98°
2026-04-29 00:14 40.78572 5.41857 36006 ft 452 kts 98°
2026-04-29 00:14 40.77764 5.50084 36006 ft 452 kts 98°
2026-04-29 00:15 40.76948 5.58313 36006 ft 452 kts 98°
2026-04-29 00:15 40.76124 5.66529 36006 ft 452 kts 98°
2026-04-29 00:16 40.75296 5.74740 36002 ft 452 kts 98°
2026-04-29 00:16 40.74464 5.82947 36002 ft 452 kts 98°
2026-04-29 00:17 40.73624 5.91157 36004 ft 452 kts 98°
2026-04-29 00:17 40.72784 5.99367 36004 ft 452 kts 98°
2026-04-29 00:18 40.71935 6.07572 36004 ft 452 kts 99°
2026-04-29 00:18 40.71076 6.15770 36000 ft 452 kts 99°
2026-04-29 00:19 40.70215 6.23974 36005 ft 452 kts 99°
2026-04-29 00:19 40.69346 6.32172 36006 ft 452 kts 99°
2026-04-29 00:20 40.68467 6.40366 36003 ft 451 kts 99°
2026-04-29 00:20 40.67588 6.48551 36000 ft 451 kts 99°
2026-04-29 00:21 40.66698 6.56729 36003 ft 451 kts 99°
2026-04-29 00:21 40.65813 6.64903 36004 ft 451 kts 99°
2026-04-29 00:22 40.64924 6.73067 36002 ft 450 kts 99°
2026-04-29 00:22 40.64025 6.81225 36001 ft 450 kts 99°
2026-04-29 00:23 40.63119 6.89383 35994 ft 450 kts 99°
2026-04-29 00:23 40.62207 6.97536 35996 ft 450 kts 99°
2026-04-29 00:24 40.61286 7.05683 35997 ft 450 kts 99°
2026-04-29 00:24 40.60363 7.13835 35997 ft 450 kts 99°
2026-04-29 00:25 40.59430 7.21980 36001 ft 450 kts 99°
2026-04-29 00:25 40.58488 7.30126 36000 ft 450 kts 99°
2026-04-29 00:26 40.57555 7.38270 36000 ft 450 kts 99°
2026-04-29 00:26 40.56655 7.46416 36002 ft 450 kts 95°
2026-04-29 00:27 40.56955 7.54630 35998 ft 451 kts 83°
2026-04-29 00:27 40.57674 7.62818 35996 ft 451 kts 84°
2026-04-29 00:28 40.58374 7.71018 35997 ft 451 kts 84°
2026-04-29 00:28 40.59066 7.79223 35999 ft 451 kts 84°
2026-04-29 00:29 40.59635 7.86046 35999 ft 451 kts 84°
2026-04-29 00:29 40.60324 7.94255 36005 ft 451 kts 84°
2026-04-29 00:30 40.61010 8.02468 36005 ft 452 kts 84°
2026-04-29 00:30 40.61689 8.10685 36013 ft 452 kts 84°
2026-04-29 00:31 40.62367 8.18898 36025 ft 452 kts 84°
2026-04-29 00:31 40.62254 8.27119 36021 ft 450 kts 101°
2026-04-29 00:32 40.60782 8.35107 36017 ft 449 kts 105°
2026-04-29 00:32 40.59246 8.43074 36012 ft 450 kts 105°
2026-04-29 00:33 40.57709 8.51054 36009 ft 450 kts 105°
2026-04-29 00:33 40.56167 8.59035 36012 ft 450 kts 105°
2026-04-29 00:34 40.54624 8.67013 36026 ft 450 kts 105°
2026-04-29 00:34 40.53071 8.74992 36022 ft 450 kts 105°
2026-04-29 00:35 40.51513 8.82968 36037 ft 451 kts 105°
2026-04-29 00:35 40.49945 8.90943 36039 ft 451 kts 105°
2026-04-29 00:36 40.48369 8.98916 36042 ft 451 kts 105°
2026-04-29 00:36 40.46795 9.06887 36042 ft 451 kts 105°
2026-04-29 00:37 40.45219 9.14854 36051 ft 451 kts 105°
2026-04-29 00:37 40.43631 9.22817 36052 ft 451 kts 105°
2026-04-29 00:38 40.42036 9.30770 36057 ft 451 kts 105°
2026-04-29 00:38 40.40442 9.38720 36059 ft 451 kts 105°
2026-04-29 00:39 40.38840 9.46668 36052 ft 451 kts 105°
2026-04-29 00:39 40.37233 9.54610 36058 ft 451 kts 105°
2026-04-29 00:40 40.35622 9.62547 36054 ft 450 kts 106°
2026-04-29 00:40 40.34003 9.70480 36050 ft 450 kts 106°
2026-04-29 00:41 40.32374 9.78405 36052 ft 450 kts 106°
2026-04-29 00:41 40.30742 9.86330 36046 ft 450 kts 106°
2026-04-29 00:42 40.29116 9.94255 36049 ft 451 kts 106°
2026-04-29 00:42 40.27477 10.02179 36055 ft 451 kts 106°
2026-04-29 00:43 40.25824 10.10096 36057 ft 451 kts 106°
2026-04-29 00:43 40.24170 10.18009 36057 ft 451 kts 106°
2026-04-29 00:44 40.22514 10.25917 36056 ft 451 kts 106°
2026-04-29 00:44 40.20857 10.33824 36059 ft 451 kts 106°
2026-04-29 00:45 40.19191 10.41729 36061 ft 451 kts 106°
2026-04-29 00:45 40.17514 10.49621 36060 ft 450 kts 107°
2026-04-29 00:46 40.15835 10.57511 36061 ft 450 kts 106°
2026-04-29 00:46 40.14158 10.65404 36058 ft 451 kts 107°
2026-04-29 00:47 40.12458 10.73298 36060 ft 451 kts 107°
2026-04-29 00:47 40.10757 10.81190 36061 ft 452 kts 107°
2026-04-29 00:48 40.09058 10.89089 36066 ft 452 kts 107°
2026-04-29 00:48 40.07357 10.96982 36066 ft 451 kts 107°
2026-04-29 00:49 40.05645 11.04867 36068 ft 452 kts 107°
2026-04-29 00:49 40.03921 11.12745 36068 ft 451 kts 107°
2026-04-29 00:50 40.02196 11.20624 36067 ft 451 kts 107°
2026-04-29 00:50 40.00469 11.28497 36068 ft 452 kts 107°
2026-04-29 00:51 39.98736 11.36369 36061 ft 452 kts 107°
2026-04-29 00:51 39.96997 11.44245 36063 ft 452 kts 107°
2026-04-29 00:52 39.95249 11.52119 36069 ft 452 kts 107°
2026-04-29 00:52 39.93497 11.59985 36069 ft 452 kts 107°
2026-04-29 00:53 39.91747 11.67848 36067 ft 452 kts 107°
2026-04-29 00:53 39.89984 11.75710 36067 ft 452 kts 107°
2026-04-29 00:54 39.88124 11.83473 36063 ft 451 kts 114°
2026-04-29 00:54 39.84823 11.90329 36053 ft 447 kts 134°
2026-04-29 00:55 39.80092 11.95472 36050 ft 444 kts 147°
2026-04-29 00:55 39.75039 12.00102 36047 ft 445 kts 147°
2026-04-29 00:56 39.69984 12.04746 36050 ft 445 kts 147°
2026-04-29 00:56 39.64920 12.09384 36053 ft 446 kts 147°
2026-04-29 00:57 39.59816 12.14071 36051 ft 447 kts 147°
2026-04-29 00:57 39.54765 12.18694 36046 ft 448 kts 147°
2026-04-29 00:58 39.49669 12.23346 36054 ft 449 kts 147°
2026-04-29 00:58 39.44557 12.27997 36058 ft 449 kts 147°
2026-04-29 00:59 39.39440 12.32645 36065 ft 450 kts 147°
2026-04-29 00:59 39.34319 12.37288 36057 ft 450 kts 147°
2026-04-29 01:00 39.29186 12.41939 36052 ft 451 kts 147°
2026-04-29 01:00 39.24042 12.46582 36053 ft 452 kts 148°
2026-04-29 01:01 39.18891 12.51229 36058 ft 452 kts 147°
2026-04-29 01:01 39.13742 12.55878 36061 ft 452 kts 147°
2026-04-29 01:02 39.08585 12.60521 36041 ft 453 kts 148°
2026-04-29 01:02 39.03410 12.65163 36041 ft 454 kts 148°
2026-04-29 01:03 38.98218 12.69801 36044 ft 455 kts 148°
2026-04-29 01:03 38.93015 12.74442 36049 ft 455 kts 148°
2026-04-29 01:04 38.87811 12.79090 36053 ft 456 kts 148°
2026-04-29 01:04 38.82597 12.83744 36040 ft 457 kts 148°
2026-04-29 01:05 38.77367 12.88400 36040 ft 458 kts 148°
2026-04-29 01:05 38.72126 12.93053 36044 ft 459 kts 149°
2026-04-29 01:06 38.66878 12.97703 36050 ft 459 kts 149°
2026-04-29 01:06 38.61620 13.02350 36041 ft 460 kts 149°
2026-04-29 01:07 38.56350 13.07004 36038 ft 461 kts 149°
2026-04-29 01:07 38.51064 13.11658 36038 ft 462 kts 149°
2026-04-29 01:08 38.45757 13.16318 36048 ft 463 kts 149°
2026-04-29 01:08 38.40448 13.20979 36058 ft 463 kts 149°
2026-04-29 01:09 38.35140 13.25642 36048 ft 464 kts 149°
2026-04-29 01:09 38.29820 13.30299 36043 ft 465 kts 150°
2026-04-29 01:10 38.24484 13.34956 36045 ft 465 kts 150°
2026-04-29 01:10 38.19143 13.39606 36051 ft 466 kts 150°
2026-04-29 01:11 38.13799 13.44258 36056 ft 466 kts 150°
2026-04-29 01:11 38.09355 13.48123 36048 ft 466 kts 150°
2026-04-29 01:12 38.04000 13.52769 36050 ft 467 kts 150°
2026-04-29 01:12 37.98626 13.57414 35841 ft 468 kts 150°
2026-04-29 01:12 37.95940 13.59734 35392 ft 466 kts 150°
2026-04-29 01:13 37.93266 13.62044 34881 ft 464 kts 150°
2026-04-29 01:13 37.90699 13.64533 34378 ft 468 kts 141°
2026-04-29 01:13 37.88460 13.67540 33823 ft 471 kts 130°
2026-04-29 01:13 37.86641 13.70982 33335 ft 471 kts 120°
2026-04-29 01:14 37.85272 13.74734 32837 ft 469 kts 112°
2026-04-29 01:14 37.84079 13.78560 32340 ft 467 kts 112°
2026-04-29 01:14 37.82887 13.82366 31850 ft 464 kts 112°
2026-04-29 01:14 37.81699 13.86147 31360 ft 462 kts 112°
2026-04-29 01:15 37.80512 13.89911 30874 ft 460 kts 112°
2026-04-29 01:15 37.79328 13.93654 30406 ft 458 kts 112°
2026-04-29 01:15 37.78129 13.97437 29872 ft 456 kts 112°
2026-04-29 01:15 37.76954 14.01144 29415 ft 452 kts 112°
2026-04-29 01:16 37.75777 14.04812 28965 ft 448 kts 113°
2026-04-29 01:16 37.74598 14.08437 28538 ft 444 kts 113°
2026-04-29 01:16 37.73422 14.12033 28102 ft 441 kts 113°
2026-04-29 01:16 37.72254 14.15599 27678 ft 437 kts 113°
2026-04-29 01:17 37.71098 14.19133 27263 ft 434 kts 113°
2026-04-29 01:17 37.69951 14.22646 26849 ft 431 kts 113°
2026-04-29 01:17 37.68812 14.26136 26442 ft 429 kts 113°
2026-04-29 01:17 37.67678 14.29604 26036 ft 426 kts 113°
2026-04-29 01:18 37.66548 14.33050 25607 ft 424 kts 113°
2026-04-29 01:18 37.64262 14.39878 24751 ft 420 kts 118°
2026-04-29 01:18 37.62699 14.42960 24306 ft 415 kts 131°
2026-04-29 01:19 37.60683 14.45523 23868 ft 409 kts 144°
2026-04-29 01:19 37.58325 14.47476 23349 ft 403 kts 157°
2026-04-29 01:19 37.55751 14.48754 22889 ft 394 kts 168°
2026-04-29 01:19 37.53123 14.49682 22419 ft 391 kts 168°
2026-04-29 01:20 37.50519 14.50607 21966 ft 387 kts 168°
2026-04-29 01:20 37.47971 14.51515 21516 ft 384 kts 168°
2026-04-29 01:20 37.45409 14.52430 21059 ft 381 kts 168°
2026-04-29 01:20 37.42868 14.53337 20605 ft 379 kts 168°
2026-04-29 01:21 37.40342 14.54237 20164 ft 376 kts 168°
2026-04-29 01:21 37.37830 14.55126 19699 ft 374 kts 168°
2026-04-29 01:21 37.35335 14.56032 19244 ft 374 kts 164°
2026-04-29 01:21 37.33054 14.57609 18787 ft 378 kts 142°
2026-04-29 01:22 37.31359 14.60128 18319 ft 381 kts 119°
2026-04-29 01:22 37.30510 14.63252 17819 ft 378 kts 96°
2026-04-29 01:22 37.30587 14.66508 17367 ft 371 kts 78°
2026-04-29 01:22 37.31046 14.69685 16921 ft 369 kts 77°
2026-04-29 01:23 37.31506 14.72843 16463 ft 366 kts 78°
2026-04-29 01:23 37.31964 14.75982 16018 ft 365 kts 78°
2026-04-29 01:23 37.32412 14.79089 15789 ft 356 kts 78°
2026-04-29 01:23 37.32840 14.82099 15676 ft 345 kts 78°
2026-04-29 01:24 37.33255 14.85030 15549 ft 336 kts 78°
2026-04-29 01:24 37.33659 14.87872 15416 ft 324 kts 78°
2026-04-29 01:24 37.34052 14.90625 15002 ft 317 kts 78°
2026-04-29 01:24 37.34439 14.93333 14514 ft 313 kts 78°
2026-04-29 01:25 37.34823 14.96014 14024 ft 310 kts 78°
2026-04-29 01:25 37.35203 14.98668 13484 ft 307 kts 78°
2026-04-29 01:25 37.35576 15.01298 12914 ft 304 kts 78°
2026-04-29 01:25 37.35945 15.03900 12423 ft 300 kts 78°
2026-04-29 01:26 37.36307 15.06466 11940 ft 296 kts 78°
2026-04-29 01:26 37.36664 15.08992 11529 ft 292 kts 78°
2026-04-29 01:26 37.37017 15.11491 11130 ft 289 kts 78°
2026-04-29 01:26 37.37371 15.13989 10736 ft 292 kts 77°
2026-04-29 01:27 37.37726 15.16497 10477 ft 290 kts 78°
2026-04-29 01:27 37.38077 15.19004 10140 ft 291 kts 78°
2026-04-29 01:27 37.38423 15.21489 9898 ft 288 kts 78°
2026-04-29 01:27 37.38767 15.23959 9605 ft 286 kts 78°
2026-04-29 01:28 37.39106 15.26413 9320 ft 283 kts 78°
2026-04-29 01:28 37.39445 15.28855 8737 ft 283 kts 78°
2026-04-29 01:28 37.39781 15.31264 8522 ft 268 kts 78°
2026-04-29 01:28 37.40098 15.33538 8168 ft 261 kts 78°
2026-04-29 01:29 37.40406 15.35753 7834 ft 253 kts 79°
2026-04-29 01:29 37.40705 15.37902 7518 ft 245 kts 79°
2026-04-29 01:29 37.40992 15.39956 7207 ft 238 kts 79°
2026-04-29 01:29 37.41273 15.41975 6917 ft 231 kts 79°
2026-04-29 01:30 37.41543 15.43933 6743 ft 219 kts 80°
2026-04-29 01:30 37.41800 15.45795 6580 ft 215 kts 80°
2026-04-29 01:30 37.42047 15.47592 6424 ft 200 kts 80°
2026-04-29 01:30 37.42274 15.49255 6261 ft 184 kts 80°
2026-04-29 01:31 37.42505 15.50754 6116 ft 165 kts 72°
2026-04-29 01:31 37.43036 15.51966 5970 ft 156 kts 49°
2026-04-29 01:31 37.43860 15.52809 5850 ft 155 kts 27°
2026-04-29 01:31 37.44882 15.53206 5707 ft 154 kts
2026-04-29 01:32 37.45947 15.53105 5585 ft 154 kts 349°
2026-04-29 01:32 37.47000 15.52870 5447 ft 154 kts 350°
2026-04-29 01:32 37.48057 15.52641 5314 ft 154 kts 350°
2026-04-29 01:32 37.49130 15.52410 4953 ft 159 kts 350°
2026-04-29 01:33 37.50230 15.52169 4523 ft 162 kts 348°
2026-04-29 01:33 37.51249 15.51585 4108 ft 162 kts 321°
2026-04-29 01:33 37.51972 15.50562 3832 ft 153 kts 298°
2026-04-29 01:33 37.52313 15.49325 3566 ft 148 kts 275°
2026-04-29 01:34 37.52269 15.48052 3298 ft 145 kts 256°
2026-04-29 01:34 37.52092 15.46806 3023 ft 144 kts 257°
2026-04-29 01:34 37.51922 15.45564 2748 ft 143 kts 257°
2026-04-29 01:34 37.51754 15.44334 2472 ft 142 kts 257°
2026-04-29 01:35 37.51585 15.43111 2198 ft 142 kts 257°
2026-04-29 01:35 37.51419 15.41899 2022 ft 140 kts 257°
2026-04-29 01:35 37.51252 15.40687 1997 ft 141 kts 257°
2026-04-29 01:35 37.51079 15.39470 1992 ft 141 kts 254°
2026-04-29 01:36 37.50785 15.38298 1993 ft 140 kts 248°
2026-04-29 01:36 37.50457 15.37147 1991 ft 140 kts 248°
2026-04-29 01:36 37.50130 15.35993 1991 ft 140 kts 248°
2026-04-29 01:36 37.49801 15.34837 1994 ft 140 kts 247°
2026-04-29 01:37 37.49473 15.33681 1990 ft 140 kts 248°
2026-04-29 01:37 37.49144 15.32525 1987 ft 140 kts 247°
2026-04-29 01:37 37.48817 15.31367 1988 ft 140 kts 249°
2026-04-29 01:37 37.48627 15.30158 1988 ft 142 kts 262°
2026-04-29 01:38 37.48528 15.28926 1990 ft 142 kts 261°
2026-04-29 01:38 37.48425 15.27682 1989 ft 144 kts 263°
2026-04-29 01:38 37.48321 15.26431 1988 ft 144 kts 263°
2026-04-29 01:38 37.48216 15.25176 1987 ft 144 kts 263°
2026-04-29 01:39 37.48112 15.23920 1981 ft 145 kts 263°
2026-04-29 01:39 37.48009 15.22658 1984 ft 145 kts 263°
2026-04-29 01:39 37.47905 15.21399 1984 ft 144 kts 263°
2026-04-29 01:39 37.47801 15.20140 1980 ft 145 kts 263°
2026-04-29 01:40 37.47695 15.18873 1749 ft 144 kts 264°
2026-04-29 01:40 37.47591 15.17626 1540 ft 143 kts 264°
2026-04-29 01:40 37.47487 15.16390 1345 ft 142 kts 264°
2026-04-29 01:40 37.47383 15.15163 1151 ft 140 kts 264°
2026-04-29 01:41 37.47281 15.13953 974 ft 138 kts 264°
2026-04-29 01:41 37.47181 15.12757 787 ft 136 kts 264°
2026-04-29 01:41 37.47076 15.11569 612 ft 134 kts 262°
2026-04-29 01:41 37.46983 15.10427 480 ft 128 kts 265°
2026-04-29 01:42 37.46901 15.09315 289 ft 128 kts 263°
2026-04-29 01:42 37.46810 15.08199 135 ft 128 kts 262°
2026-04-29 01:42 37.46718 15.07086 38 ft 121 kts 261°
2026-04-29 01:42 37.46652 15.06372 34 ft 19 kts 266°
2026-04-29 01:43 37.46656 15.06341 34 ft 5 kts 278°
2026-04-29 01:43 37.46682 15.06294 32 ft 9 kts 323°
2026-04-29 01:43 37.46736 15.06303 31 ft 7 kts 11°
2026-04-29 01:43 37.46782 15.06315 30 ft 1 kts 12°
2026-04-29 01:44 37.46783 15.06315 30 ft 0 kts 12°
2026-04-29 01:44 37.46787 15.06316 30 ft 2 kts 17°
2026-04-29 01:45 37.46811 15.06337 29 ft 7 kts 45°
2026-04-29 01:45 37.46825 15.06408 27 ft 10 kts 76°
2026-04-29 01:45 37.46894 15.06442 26 ft 12 kts 15°
2026-04-29 01:45 37.46951 15.06467 27 ft 4 kts 20°
2026-04-29 01:46 37.46961 15.06471 27 ft 2 kts 19°
2026-04-29 01:46 37.46965 15.06473 27 ft 0 kts 19°